Location: Antioch Baptist Church
(32.6696°N, 85.7327°W)
Time: 21:07:17
(UTC+00:00)

Nadezhda 1 Rocket - Pass Details

Date: 14 July 2020
Orbit: 941 x 1005 km, 83.0° (Epoch: 13 August)

Event Time Altitude Azimuth Distance (km) Brightness Sun altitude
Rises 01:29:09 0° 356° (N) 3,734 7.6 -7.6°
Reaches altitude 10° 01:31:43 10° 358° (N) 2,777 6.9 -8.1°
Maximum altitude 01:38:06 74° 83° (E) 1,035 4.0 -9.2°
Drops below altitude 10° 01:44:22 10° 169° (SSE) 2,729 5.9 -10.3°
Enters shadow 01:46:45 - 171° (S) 3,621 6.6 -10.7°
